User: anonymous
Location: Unspecified
(0.0000°N, 0.0000°E)
Time: 17:16:23
(UTC+02:00)
Language:

Ariane 42L R/B - Orbit

View from above orbital plane
View from above orbital plane
View from above satellite
View from above satellite

Ground track
Ground track

The orbit data is extracted from the following two-line orbital elements,

1 26299U 00020B   14205.30534603  .00001176  00000-0  37511-3 0   138
2 26299 007.4726 118.2748 6054082 267.4337 343.8862 03.92942214176288
Epoch (UTC): 24 July 2014 07:19:41
Eccentricity: 0.6054082
inclination: 7.4726°
perigee height: 315 km
apogee height: 20855 km
right ascension of ascending node: 118.2748°
argument of perigee: 267.4337°
revolutions per day: 3.92942214
mean anomaly at epoch: 343.8862°
orbit number at epoch: 17628

The dashed part of the orbit path shows where the satellite is in the earth's shadow,  

DLR